IRIDIUM 14 [+]

Last updated on Tue Feb 26 2019 03:07:24 GMT+0000 (Coordinated Universal Time)

1 25777U 99032A 19056.59243468 .00000195 00000-0 57310-4 0 9998 2 25777 86.4271 325.5287 0002248 101.5427 258.6024 14.38551513 43387
UTC large
Height (km)
Speed (km/s)
/
Latitude / Longitude
Inclination (degrees)
Orbital Period (minutes)
Azimuth
Elevation
Range (km)
Doppler Factor

Next 0 passes for location: London (51.5072 / 0.1276)

Sorry there are no passes over London.